| time (UTC) | temp C | wind direction | speed KPH | gust KPH | rain 1hr cm | rain 24hr cm | rain mn cm | humidity % | barometer mb |
| 20260906214513 | 30 | 18 | 9.7 | 0.0 | 0.00 | 0.00 | 0.00 | 48 | 1008.0 |
| 20260906214012 | 30 | 5 | 11.3 | 0.0 | 0.00 | 0.00 | 0.00 | 49 | 1008.0 |
| 20260906213512 | 30 | 344 | 12.9 | 0.0 | 0.00 | 0.00 | 0.00 | 49 | 1008.1 |
| 20260906213011 | 30 | 348 | 12.9 | 0.0 | 0.00 | 0.00 | 0.00 | 50 | 1008.0 |
| 20260906212612 | 30 | 355 | 12.9 | 0.0 | 0.00 | 0.00 | 0.00 | 51 | 1008.3 |
| 20260906212010 | 30 | 355 | 11.3 | 0.0 | 0.00 | 0.00 | 0.00 | 52 | 1008.2 |
| 20260906211508 | 29 | 305 | 9.7 | 0.0 | 0.00 | 0.00 | 0.00 | 53 | 1008.3 |
| 20260906211008 | 30 | 328 | 11.3 | 0.0 | 0.00 | 0.00 | 0.00 | 51 | 1008.5 |
| 20260906210509 | 30 | 34 | 12.9 | 0.0 | 0.00 | 0.00 | 0.00 | 53 | 1008.6 |
| 20260906205505 | 28 | 303 | 11.3 | 0.0 | 0.00 | 0.00 | 0.00 | 55 | 1008.8 |
| 20260906205002 | 29 | 325 | 11.3 | 0.0 | 0.00 | 0.00 | 0.00 | 54 | 1009.0 |
| 20260906204504 | 29 | 360 | 11.3 | 0.0 | 0.00 | 0.00 | 0.00 | 55 | 1009.1 |
| 20260906204002 | 28 | 5 | 9.7 | 0.0 | 0.00 | 0.00 | 0.00 | 56 | 1009.1 |
| 20260906203600 | 28 | 321 | 8.0 | 0.0 | 0.00 | 0.00 | 0.00 | 56 | 1009.2 |
| 20260906203100 | 28 | 312 | 6.4 | 0.0 | 0.00 | 0.00 | 0.00 | 56 | 1009.2 |
| 20260906202558 | 28 | 325 | 6.4 | 0.0 | 0.00 | 0.00 | 0.00 | 57 | 1009.2 |
| 20260906202057 | 28 | 326 | 6.4 | 0.0 | 0.00 | 0.00 | 0.00 | 57 | 1009.2 |
| 20260906201601 | 28 | 288 | 6.4 | 0.0 | 0.00 | 0.00 | 0.00 | 57 | 1009.3 |
| 20260906201056 | 27 | 18 | 6.4 | 0.0 | 0.00 | 0.00 | 0.00 | 58 | 1009.4 |
| 20260906200558 | 27 | 279 | 9.7 | 0.0 | 0.00 | 0.00 | 0.00 | 61 | 1009.4 |
| 20260906200056 | 27 | 324 | 11.3 | 0.0 | 0.00 | 0.00 | 0.00 | 60 | 1009.5 |
| 20260906195556 | 27 | 301 | 11.3 | 0.0 | 0.00 | 0.00 | 0.00 | 59 | 1009.4 |
| 20260906195054 | 28 | 254 | 11.3 | 0.0 | 0.00 | 0.00 | 0.00 | 59 | 1009.5 |
| 20260906194553 | 27 | 331 | 11.3 | 0.0 | 0.00 | 0.00 | 0.00 | 60 | 1009.5 |
| 20260906194054 | 27 | 331 | 11.3 | 0.0 | 0.00 | 0.00 | 0.00 | 62 | 1009.6 |
| 20260906193551 | 27 | 324 | 11.3 | 0.0 | 0.00 | 0.00 | 0.00 | 63 | 1009.7 |
| 20260906193051 | 27 | 325 | 11.3 | 0.0 | 0.00 | 0.00 | 0.00 | 63 | 1009.8 |
| 20260906192555 | 27 | 342 | 9.7 | 0.0 | 0.00 | 0.00 | 0.00 | 63 | 1009.8 |
| 20260906192050 | 27 | 322 | 9.7 | 0.0 | 0.00 | 0.00 | 0.00 | 64 | 1009.9 |
| 20260906191600 | 27 | 306 | 8.0 | 0.0 | 0.00 | 0.00 | 0.00 | 65 | 1009.8 |
| 20260906191051 | 26 | 318 | 9.7 | 0.0 | 0.00 | 0.00 | 0.00 | 66 | 1009.9 |
| 20260906190552 | 26 | 350 | 11.3 | 0.0 | 0.00 | 0.00 | 0.00 | 66 | 1010.0 |
| 20260906190049 | 26 | 261 | 11.3 | 0.0 | 0.00 | 0.00 | 0.00 | 66 | 1009.9 |
| 20260906185547 | 26 | 332 | 9.7 | 0.0 | 0.00 | 0.00 | 0.00 | 68 | 1010.2 |
| 20260906185048 | 26 | 341 | 11.3 | 0.0 | 0.00 | 0.00 | 0.00 | 67 | 1010.3 |
| 20260906184556 | 26 | 319 | 9.7 | 0.0 | 0.00 | 0.00 | 0.00 | 67 | 1010.3 |
| 20260906184048 | 26 | 290 | 6.4 | 0.0 | 0.00 | 0.00 | 0.00 | 66 | 1010.3 |
| 20260906183546 | 26 | 209 | 6.4 | 0.0 | 0.00 | 0.00 | 0.00 | 66 | 1010.4 |
| 20260906183047 | 26 | 290 | 4.8 | 0.0 | 0.00 | 0.00 | 0.00 | 66 | 1010.4 |
| 20260906182547 | 26 | 259 | 4.8 | 0.0 | 0.00 | 0.00 | 0.00 | 69 | 1010.6 |
| 20260906182046 | 25 | 300 | 4.8 | 0.0 | 0.00 | 0.00 | 0.00 | 69 | 1010.6 |
| 20260906181542 | 25 | 207 | 8.0 | 0.0 | 0.00 | 0.00 | 0.00 | 69 | 1010.6 |
| 20260906181041 | 25 | 217 | 6.4 | 0.0 | 0.00 | 0.00 | 0.00 | 70 | 1010.6 |
| 20260906180542 | 25 | 259 | 6.4 | 0.0 | 0.00 | 0.00 | 0.00 | 72 | 1010.7 |
| 20260906180056 | 25 | 271 | 4.8 | 0.0 | 0.00 | 0.00 | 0.00 | 72 | 1010.7 |
| 20260906175542 | 24 | 252 | 3.2 | 0.0 | 0.00 | 0.00 | 0.00 | 73 | 1010.8 |
| 20260906175040 | 24 | 249 | 4.8 | 0.0 | 0.00 | 0.00 | 0.00 | 74 | 1010.7 |
| 20260906174539 | 23 | 315 | 4.8 | 0.0 | 0.00 | 0.00 | 0.00 | 75 | 1010.7 |
| 20260906174036 | 23 | 252 | 4.8 | 0.0 | 0.00 | 0.00 | 0.00 | 76 | 1010.6 |
| 20260906173537 | 23 | 107 | 4.8 | 0.0 | 0.00 | 0.00 | 0.00 | 78 | 1010.7 |
| 20260906173038 | 23 | 259 | 6.4 | 0.0 | 0.00 | 0.00 | 0.00 | 78 | 1010.7 |
| 20260906172536 | 22 | 238 | 6.4 | 0.0 | 0.00 | 0.00 | 0.00 | 80 | 1010.7 |
| 20260906172033 | 22 | 245 | 6.4 | 0.0 | 0.00 | 0.00 | 0.00 | 80 | 1010.7 |
| 20260906171533 | 23 | 257 | 4.8 | 0.0 | 0.00 | 0.00 | 0.00 | 80 | 1010.8 |
| 20260906171033 | 22 | 312 | 4.8 | 0.0 | 0.00 | 0.00 | 0.00 | 81 | 1011.0 |
| 20260906170532 | 22 | 276 | 6.4 | 0.0 | 0.00 | 0.00 | 0.00 | 82 | 1010.8 |
| 20260906170031 | 22 | 248 | 6.4 | 0.0 | 0.00 | 0.00 | 0.00 | 82 | 1010.7 |
| 20260906165531 | 22 | 350 | 4.8 | 0.0 | 0.00 | 0.00 | 0.00 | 83 | 1010.5 |
| 20260906165033 | 21 | 329 | 3.2 | 0.0 | 0.00 | 0.00 | 0.00 | 85 | 1010.9 |
| 20260906164530 | 21 | 5 | 4.8 | 0.0 | 0.00 | 0.00 | 0.00 | 86 | 1010.6 |
| 20260906164031 | 21 | 258 | 8.0 | 0.0 | 0.00 | 0.00 | 0.00 | 86 | 1010.7 |
| 20260906163530 | 20 | 42 | 9.7 | 0.0 | 0.00 | 0.00 | 0.00 | 87 | 1010.4 |
| 20260906163030 | 20 | 83 | 9.7 | 0.0 | 0.00 | 0.00 | 0.00 | 87 | 1010.8 |
| 20260906162533 | 20 | 77 | 9.7 | 0.0 | 0.00 | 0.00 | 0.00 | 89 | 1010.7 |
| 20260906162029 | 20 | 61 | 9.7 | 0.0 | 0.00 | 0.00 | 0.00 | 89 | 1010.7 |
| 20260906161529 | 20 | 327 | 11.3 | 0.0 | 0.00 | 0.00 | 0.00 | 90 | 1010.4 |
| 20260906161032 | 20 | 23 | 12.9 | 0.0 | 0.00 | 0.00 | 0.00 | 89 | 1010.6 |
| 20260906160529 | 20 | 5 | 11.3 | 0.0 | 0.00 | 0.00 | 0.00 | 90 | 1010.5 |
| 20260906160031 | 20 | 29 | 11.3 | 0.0 | 0.00 | 0.00 | 0.00 | 90 | 1010.6 |
| 20260906155529 | 20 | 57 | 11.3 | 0.0 | 0.00 | 0.00 | 0.00 | 90 | 1010.6 |
| 20260906155028 | 20 | 43 | 9.7 | 0.0 | 0.00 | 0.00 | 0.00 | 91 | 1010.3 |
| 20260906154530 | 19 | 37 | 9.7 | 0.0 | 0.00 | 0.00 | 0.00 | 92 | 1010.4 |
| 20260906154031 | 19 | 28 | 9.7 | 0.0 | 0.00 | 0.00 | 0.00 | 93 | 1010.5 |
| 20260906153529 | 18 | 59 | 8.0 | 0.0 | 0.00 | 0.00 | 0.00 | 92 | 1010.6 |
| 20260906153031 | 18 | 327 | 11.3 | 0.0 | 0.00 | 0.00 | 0.00 | 92 | 1010.7 |
| 20260906152528 | 19 | 38 | 11.3 | 0.0 | 0.00 | 0.00 | 0.00 | 92 | 1010.3 |
| 20260906152028 | 19 | 46 | 9.7 | 0.0 | 0.00 | 0.00 | 0.00 | 92 | 1010.4 |
| 20260906151531 | 19 | 313 | 8.0 | 0.0 | 0.00 | 0.00 | 0.00 | 92 | 1010.6 |
| 20260906151028 | 18 | 324 | 6.4 | 0.0 | 0.00 | 0.00 | 0.00 | 92 | 1010.8 |
| 20260906150528 | 18 | 310 | 8.0 | 0.0 | 0.00 | 0.00 | 0.00 | 93 | 1010.8 |
| 20260906150027 | 18 | 5 | 8.0 | 0.0 | 0.00 | 0.00 | 0.00 | 93 | 1010.4 |
| 20260906145527 | 18 | 51 | 9.7 | 0.0 | 0.00 | 0.00 | 0.00 | 93 | 1010.7 |
| 20260906145029 | 18 | 26 | 11.3 | 0.0 | 0.00 | 0.00 | 0.00 | 93 | 1010.4 |
| 20260906144527 | 18 | 71 | 9.7 | 0.0 | 0.00 | 0.00 | 0.00 | 93 | 1010.6 |
| 20260906144027 | 18 | 61 | 12.9 | 0.0 | 0.00 | 0.00 | 0.00 | 93 | 1010.9 |
| 20260906143527 | 18 | 360 | 16.1 | 0.0 | 0.00 | 0.00 | 0.00 | 93 | 1010.6 |
| 20260906143026 | 18 | 36 | 11.3 | 0.0 | 0.00 | 0.00 | 0.00 | 93 | 1010.7 |
| 20260906142526 | 18 | 18 | 9.7 | 0.0 | 0.00 | 0.00 | 0.00 | 93 | 1011.7 |
| 20260906142029 | 18 | 340 | 8.0 | 0.0 | 0.00 | 0.00 | 0.00 | 93 | 1011.8 |
| 20260906141526 | 18 | 80 | 9.7 | 0.0 | 0.00 | 0.00 | 0.00 | 93 | 1011.7 |
| 20260906141026 | 18 | 329 | 8.0 | 0.0 | 0.00 | 0.00 | 0.00 | 93 | 1011.8 |
| 20260906140528 | 18 | 269 | 9.7 | 0.0 | 0.00 | 0.00 | 0.00 | 94 | 1011.7 |
| 20260906140026 | 18 | 72 | 14.5 | 0.0 | 0.00 | 0.00 | 0.00 | 94 | 1011.0 |
| 20260906135526 | 18 | 28 | 16.1 | 0.0 | 0.00 | 0.00 | 0.00 | 94 | 1010.2 |
| 20260906135025 | 18 | 49 | 17.7 | 0.0 | 0.00 | 0.00 | 0.00 | 94 | 1009.9 |
| 20260906134531 | 18 | 34 | 17.7 | 0.0 | 0.00 | 0.00 | 0.00 | 94 | 1009.6 |
| 20260906134023 | 18 | 23 | 12.9 | 0.0 | 0.00 | 0.00 | 0.00 | 94 | 1009.8 |
| 20260906133523 | 18 | 28 | 12.9 | 0.0 | 0.00 | 0.00 | 0.00 | 94 | 1010.2 |
| 20260906133023 | 18 | 34 | 14.5 | 0.0 | 0.00 | 0.00 | 0.00 | 94 | 1010.2 |
| 20260906132522 | 18 | 42 | 12.9 | 0.0 | 0.00 | 0.00 | 0.00 | 94 | 1010.2 |
| 20260906132023 | 18 | 12 | 9.7 | 0.0 | 0.00 | 0.00 | 0.00 | 94 | 1010.5 |
| 20260906131523 | 18 | 18 | 6.4 | 0.0 | 0.00 | 0.00 | 0.00 | 94 | 1010.8 |
| 20260906131021 | 18 | 331 | 4.8 | 0.0 | 0.00 | 0.00 | 0.00 | 94 | 1011.4 |
| 20260906130521 | 18 | 312 | 4.8 | 0.0 | 0.00 | 0.00 | 0.00 | 95 | 1011.7 |
| 20260906130025 | 17 | 307 | 4.8 | 0.0 | 0.00 | 0.00 | 0.00 | 95 | 1011.8 |
| 20260906125522 | 17 | 275 | 4.8 | 0.0 | 0.00 | 0.00 | 0.00 | 95 | 1012.0 |
| 20260906125022 | 17 | 275 | 6.4 | 0.0 | 0.00 | 0.00 | 0.00 | 95 | 1012.1 |
| 20260906124520 | 17 | 268 | 6.4 | 0.0 | 0.00 | 0.00 | 0.00 | 94 | 1012.2 |
| 20260906124021 | 17 | 306 | 8.0 | 0.0 | 0.00 | 0.00 | 0.00 | 94 | 1012.2 |
| 20260906123520 | 17 | 271 | 8.0 | 0.0 | 0.00 | 0.00 | 0.00 | 94 | 1012.3 |
| 20260906123020 | 17 | 281 | 6.4 | 0.0 | 0.00 | 0.00 | 0.00 | 95 | 1012.2 |
| 20260906122521 | 17 | 286 | 6.4 | 0.0 | 0.00 | 0.00 | 0.00 | 95 | 1012.2 |
| 20260906122022 | 17 | 310 | 6.4 | 0.0 | 0.00 | 0.00 | 0.00 | 95 | 1011.8 |
| 20260906121522 | 17 | 5 | 4.8 | 0.0 | 0.00 | 0.00 | 0.00 | 95 | 1011.5 |
| 20260906121023 | 16 | 234 | 1.6 | 0.0 | 0.00 | 0.00 | 0.00 | 95 | 1011.8 |
| 20260906120522 | 16 | 185 | 1.6 | 0.0 | 0.00 | 0.00 | 0.00 | 94 | 1011.9 |
| 20260906120019 | 16 | 185 | 1.6 | 0.0 | 0.00 | 0.00 | 0.00 | 94 | 1011.9 |
| 20260906115520 | 16 | 185 | 0.0 | 0.0 | 0.00 | 0.00 | 0.00 | 94 | 1012.3 |
| 20260906115021 | 16 | 185 | 0.0 | 0.0 | 0.00 | 0.00 | 0.00 | 94 | 1012.3 |
| 20260906114518 | 16 | 185 | 1.6 | 0.0 | 0.00 | 0.00 | 0.00 | 94 | 1012.2 |
| 20260906114017 | 16 | 185 | 3.2 | 0.0 | 0.00 | 0.00 | 0.00 | 94 | 1012.0 |
| 20260906113517 | 16 | 317 | 4.8 | 0.0 | 0.00 | 0.00 | 0.00 | 94 | 1011.8 |
| 20260906113017 | 16 | 317 | 3.2 | 0.0 | 0.00 | 0.00 | 0.00 | 94 | 1011.6 |
| 20260906112516 | 15 | 306 | 1.6 | 0.0 | 0.00 | 0.00 | 0.00 | 94 | 1011.6 |
| 20260906112016 | 15 | 306 | 1.6 | 0.0 | 0.00 | 0.00 | 0.00 | 93 | 1011.9 |
| 20260906111516 | 15 | 306 | 3.2 | 0.0 | 0.00 | 0.00 | 0.00 | 93 | 1011.8 |
| 20260906111015 | 16 | 306 | 4.8 | 0.0 | 0.00 | 0.00 | 0.00 | 94 | 1011.8 |
| 20260906110517 | 16 | 306 | 4.8 | 0.0 | 0.00 | 0.00 | 0.00 | 94 | 1011.5 |
| 20260906110015 | 15 | 306 | 1.6 | 0.0 | 0.00 | 0.00 | 0.00 | 94 | 1011.7 |
| 20260906105514 | 14 | 306 | 1.6 | 0.0 | 0.00 | 0.00 | 0.00 | 93 | 1011.7 |
| 20260906105015 | 15 | 306 | 1.6 | 0.0 | 0.00 | 0.00 | 0.00 | 93 | 1011.7 |
| 20260906104513 | 14 | 306 | 1.6 | 0.0 | 0.00 | 0.00 | 0.00 | 93 | 1011.5 |
| 20260906104013 | 14 | 306 | 0.0 | 0.0 | 0.00 | 0.00 | 0.00 | 93 | 1011.5 |
| 20260906103512 | 14 | 306 | 0.0 | 0.0 | 0.00 | 0.00 | 0.00 | 92 | 1011.3 |
| 20260906103012 | 14 | 306 | 1.6 | 0.0 | 0.00 | 0.00 | 0.00 | 92 | 1011.3 |
| 20260906102513 | 15 | 306 | 1.6 | 0.0 | 0.00 | 0.00 | 0.00 | 92 | 1011.0 |
| 20260906102011 | 15 | 306 | 0.0 | 0.0 | 0.00 | 0.00 | 0.00 | 92 | 1011.0 |
| 20260906101510 | 15 | 306 | 0.0 | 0.0 | 0.00 | 0.00 | 0.00 | 91 | 1010.9 |
| 20260906101008 | 15 | 306 | 0.0 | 0.0 | 0.00 | 0.00 | 0.00 | 92 | 1010.9 |
| 20260906100508 | 15 | 306 | 0.0 | 0.0 | 0.00 | 0.00 | 0.00 | 92 | 1010.8 |
| 20260906100008 | 16 | 307 | 0.0 | 0.0 | 0.00 | 0.00 | 0.00 | 93 | 1010.8 |
| 20260906095507 | 15 | 307 | 0.0 | 0.0 | 0.00 | 0.00 | 0.00 | 93 | 1010.7 |
| 20260906095008 | 15 | 307 | 0.0 | 0.0 | 0.00 | 0.00 | 0.00 | 93 | 1010.7 |
| 20260906094507 | 15 | 307 | 1.6 | 0.0 | 0.00 | 0.00 | 0.00 | 91 | 1010.7 |
| 20260906094007 | 16 | 307 | 1.6 | 0.0 | 0.00 | 0.00 | 0.00 | 91 | 1010.8 |
| 20260906093505 | 16 | 307 | 0.0 | 0.0 | 0.00 | 0.00 | 0.00 | 92 | 1010.8 |
| 20260906093012 | 16 | 308 | 0.0 | 0.0 | 0.00 | 0.00 | 0.00 | 92 | 1010.9 |
| 20260906092507 | 16 | 308 | 0.0 | 0.0 | 0.00 | 0.00 | 0.00 | 90 | 1010.9 |
| 20260906092002 | 17 | 308 | 1.6 | 0.0 | 0.00 | 0.00 | 0.00 | 91 | 1011.0 |
| 20260906091502 | 17 | 308 | 1.6 | 0.0 | 0.00 | 0.00 | 0.00 | 92 | 1010.8 |
| 20260906091002 | 17 | 308 | 1.6 | 0.0 | 0.00 | 0.00 | 0.00 | 92 | 1010.7 |
| 20260906090501 | 17 | 308 | 0.0 | 0.0 | 0.00 | 0.00 | 0.00 | 91 | 1010.7 |
| 20260906090002 | 17 | 308 | 0.0 | 0.0 | 0.00 | 0.00 | 0.00 | 92 | 1010.6 |
| 20260906085603 | 17 | 308 | 0.0 | 0.0 | 0.00 | 0.00 | 0.00 | 91 | 1010.7 |
| 20260906084559 | 17 | 308 | 1.6 | 0.0 | 0.00 | 0.00 | 0.00 | 91 | 1010.7 |
| 20260906084058 | 17 | 308 | 1.6 | 0.0 | 0.00 | 0.00 | 0.00 | 91 | 1010.7 |
| 20260906083557 | 17 | 308 | 1.6 | 0.0 | 0.00 | 0.00 | 0.00 | 91 | 1010.7 |
| 20260906083057 | 17 | 308 | 1.6 | 0.0 | 0.00 | 0.00 | 0.00 | 90 | 1010.8 |
| 20260906082555 | 17 | 308 | 1.6 | 0.0 | 0.00 | 0.00 | 0.00 | 90 | 1010.8 |
| 20260906082054 | 18 | 308 | 3.2 | 0.0 | 0.00 | 0.00 | 0.00 | 90 | 1010.8 |
| 20260906081553 | 18 | 308 | 4.8 | 0.0 | 0.00 | 0.00 | 0.00 | 90 | 1010.9 |
| 20260906081052 | 18 | 308 | 6.4 | 0.0 | 0.00 | 0.00 | 0.00 | 90 | 1011.0 |
| 20260906080552 | 18 | 302 | 6.4 | 0.0 | 0.00 | 0.00 | 0.00 | 91 | 1011.1 |
| 20260906080057 | 18 | 40 | 4.8 | 0.0 | 0.00 | 0.00 | 0.00 | 90 | 1011.1 |
| 20260906075550 | 18 | 62 | 6.4 | 0.0 | 0.00 | 0.00 | 0.00 | 90 | 1011.2 |
| 20260906074557 | 18 | 62 | 6.4 | 0.0 | 0.00 | 0.00 | 0.00 | 89 | 1011.2 |
| 20260906074049 | 18 | 63 | 4.8 | 0.0 | 0.00 | 0.00 | 0.00 | 89 | 1011.2 |
| 20260906073549 | 19 | 63 | 3.2 | 0.0 | 0.00 | 0.00 | 0.00 | 89 | 1011.3 |
| 20260906073049 | 19 | 63 | 3.2 | 0.0 | 0.00 | 0.00 | 0.00 | 89 | 1011.3 |
| 20260906072552 | 19 | 63 | 3.2 | 0.0 | 0.00 | 0.00 | 0.00 | 89 | 1011.3 |
| 20260906072049 | 19 | 63 | 3.2 | 0.0 | 0.00 | 0.00 | 0.00 | 89 | 1011.3 |
| 20260906071550 | 19 | 63 | 4.8 | 0.0 | 0.00 | 0.00 | 0.00 | 89 | 1011.2 |
| 20260906071049 | 19 | 63 | 4.8 | 0.0 | 0.00 | 0.00 | 0.00 | 90 | 1011.3 |
| 20260906070548 | 18 | 20 | 3.2 | 0.0 | 0.00 | 0.00 | 0.00 | 88 | 1011.4 |
| 20260906070047 | 19 | 17 | 1.6 | 0.0 | 0.00 | 0.00 | 0.00 | 88 | 1011.4 |
| 20260906065547 | 19 | 17 | 1.6 | 0.0 | 0.00 | 0.00 | 0.00 | 88 | 1011.3 |
| 20260906064546 | 19 | 17 | 3.2 | 0.0 | 0.00 | 0.00 | 0.00 | 88 | 1011.3 |
| 20260906064046 | 20 | 17 | 4.8 | 0.0 | 0.00 | 0.00 | 0.00 | 87 | 1011.3 |
| 20260906063545 | 20 | 17 | 4.8 | 0.0 | 0.00 | 0.00 | 0.00 | 87 | 1011.3 |
| 20260906063045 | 20 | 17 | 4.8 | 0.0 | 0.00 | 0.00 | 0.00 | 88 | 1011.3 |
| 20260906062544 | 20 | 318 | 3.2 | 0.0 | 0.00 | 0.00 | 0.00 | 88 | 1011.5 |
| 20260906062045 | 20 | 317 | 3.2 | 0.0 | 0.00 | 0.00 | 0.00 | 87 | 1011.5 |
| 20260906061544 | 20 | 317 | 3.2 | 0.0 | 0.00 | 0.00 | 0.00 | 87 | 1011.5 |
| 20260906061046 | 20 | 317 | 1.6 | 0.0 | 0.00 | 0.00 | 0.00 | 87 | 1011.5 |
| 20260906060543 | 20 | 317 | 1.6 | 0.0 | 0.00 | 0.00 | 0.00 | 87 | 1011.5 |
| 20260906060055 | 20 | 317 | 3.2 | 0.0 | 0.00 | 0.00 | 0.00 | 87 | 1011.5 |
| 20260906055545 | 20 | 317 | 4.8 | 0.0 | 0.00 | 0.00 | 0.00 | 85 | 1011.6 |
| 20260906054541 | 20 | 298 | 6.4 | 0.0 | 0.00 | 0.00 | 0.00 | 86 | 1011.5 |
| 20260906054040 | 20 | 309 | 6.4 | 0.0 | 0.00 | 0.00 | 0.00 | 85 | 1011.4 |
| 20260906053540 | 20 | 304 | 3.2 | 0.0 | 0.00 | 0.00 | 0.00 | 85 | 1011.4 |
| 20260906053038 | 21 | 15 | 3.2 | 0.0 | 0.00 | 0.00 | 0.00 | 84 | 1011.4 |
| 20260906052543 | 21 | 62 | 4.8 | 0.0 | 0.00 | 0.00 | 0.00 | 84 | 1011.4 |
| 20260906052037 | 21 | 62 | 6.4 | 0.0 | 0.00 | 0.00 | 0.00 | 84 | 1011.3 |
| 20260906051542 | 21 | 62 | 8.0 | 0.0 | 0.00 | 0.00 | 0.00 | 84 | 1011.3 |
| 20260906051040 | 21 | 66 | 8.0 | 0.0 | 0.00 | 0.00 | 0.00 | 84 | 1011.3 |
| 20260906050537 | 21 | 63 | 9.7 | 0.0 | 0.00 | 0.00 | 0.00 | 84 | 1011.3 |
| 20260906050037 | 21 | 53 | 11.3 | 0.0 | 0.00 | 0.00 | 0.00 | 84 | 1011.3 |
| 20260906045538 | 21 | 49 | 11.3 | 0.0 | 0.00 | 0.00 | 0.00 | 83 | 1011.3 |
| 20260906044537 | 21 | 55 | 9.7 | 0.0 | 0.00 | 0.00 | 0.00 | 83 | 1011.3 |
| 20260906044037 | 21 | 44 | 9.7 | 0.0 | 0.00 | 0.00 | 0.00 | 82 | 1011.3 |
| 20260906043535 | 21 | 36 | 9.7 | 0.0 | 0.00 | 0.00 | 0.00 | 81 | 1011.4 |
| 20260906043036 | 21 | 40 | 9.7 | 0.0 | 0.00 | 0.00 | 0.00 | 81 | 1011.3 |
| 20260906042533 | 21 | 42 | 9.7 | 0.0 | 0.00 | 0.00 | 0.00 | 80 | 1011.4 |
| 20260906042032 | 21 | 46 | 9.7 | 0.0 | 0.00 | 0.00 | 0.00 | 80 | 1011.4 |
| 20260906041540 | 22 | 42 | 9.7 | 0.0 | 0.00 | 0.00 | 0.00 | 79 | 1011.3 |
| 20260906041031 | 22 | 30 | 11.3 | 0.0 | 0.00 | 0.00 | 0.00 | 79 | 1011.4 |
| 20260906040530 | 22 | 21 | 11.3 | 0.0 | 0.00 | 0.00 | 0.00 | 79 | 1011.4 |
| 20260906040033 | 22 | 17 | 11.3 | 0.0 | 0.00 | 0.00 | 0.00 | 79 | 1011.5 |
| 20260906035530 | 22 | 23 | 11.3 | 0.0 | 0.00 | 0.00 | 0.00 | 78 | 1011.5 |
| 20260906034531 | 22 | 28 | 11.3 | 0.0 | 0.00 | 0.00 | 0.00 | 78 | 1011.5 |
| 20260906034034 | 22 | 11 | 11.3 | 0.0 | 0.00 | 0.00 | 0.00 | 78 | 1011.4 |
| 20260906033527 | 22 | 5 | 11.3 | 0.0 | 0.00 | 0.00 | 0.00 | 77 | 1011.3 |
| 20260906033030 | 22 | 5 | 11.3 | 0.0 | 0.00 | 0.00 | 0.00 | 77 | 1011.4 |
| 20260906032526 | 22 | 14 | 11.3 | 0.0 | 0.00 | 0.00 | 0.00 | 77 | 1011.4 |
| 20260906032026 | 22 | 17 | 11.3 | 0.0 | 0.00 | 0.00 | 0.00 | 76 | 1011.5 |
| 20260906031526 | 22 | 18 | 11.3 | 0.0 | 0.00 | 0.00 | 0.00 | 76 | 1011.4 |
| 20260906031028 | 22 | 22 | 11.3 | 0.0 | 0.00 | 0.00 | 0.00 | 76 | 1011.5 |
| 20260906030526 | 22 | 10 | 11.3 | 0.0 | 0.00 | 0.00 | 0.00 | 75 | 1011.5 |
| 20260906030026 | 23 | 5 | 12.9 | 0.0 | 0.00 | 0.00 | 0.00 | 75 | 1011.5 |
| 20260906025525 | 23 | 355 | 14.5 | 0.0 | 0.00 | 0.00 | 0.00 | 74 | 1011.6 |
| 20260906024526 | 23 | 351 | 12.9 | 0.0 | 0.00 | 0.00 | 0.00 | 74 | 1011.4 |
| 20260906024027 | 23 | 360 | 12.9 | 0.0 | 0.00 | 0.00 | 0.00 | 74 | 1011.3 |
| 20260906023526 | 23 | 5 | 9.7 | 0.0 | 0.00 | 0.00 | 0.00 | 73 | 1011.3 |
| 20260906023024 | 23 | 355 | 9.7 | 0.0 | 0.00 | 0.00 | 0.00 | 73 | 1011.2 |
| 20260906022525 | 23 | 344 | 9.7 | 0.0 | 0.00 | 0.00 | 0.00 | 73 | 1011.2 |
| 20260906022028 | 23 | 317 | 8.0 | 0.0 | 0.00 | 0.00 | 0.00 | 72 | 1011.1 |
| 20260906021525 | 23 | 327 | 8.0 | 0.0 | 0.00 | 0.00 | 0.00 | 72 | 1011.1 |
| 20260906021026 | 23 | 335 | 8.0 | 0.0 | 0.00 | 0.00 | 0.00 | 71 | 1011.1 |
| 20260906020524 | 23 | 355 | 8.0 | 0.0 | 0.00 | 0.00 | 0.00 | 71 | 1011.0 |
| 20260906020023 | 23 | 336 | 8.0 | 0.0 | 0.00 | 0.00 | 0.00 | 70 | 1010.9 |
| 20260906015522 | 23 | 339 | 8.0 | 0.0 | 0.00 | 0.00 | 0.00 | 70 | 1010.9 |
| 20260906014524 | 24 | 330 | 8.0 | 0.0 | 0.00 | 0.00 | 0.00 | 68 | 1010.6 |
| 20260906014021 | 24 | 342 | 8.0 | 0.0 | 0.00 | 0.00 | 0.00 | 67 | 1010.6 |
| 20260906013520 | 25 | 348 | 9.7 | 0.0 | 0.00 | 0.00 | 0.00 | 66 | 1010.5 |
| 20260906013020 | 25 | 328 | 8.0 | 0.0 | 0.00 | 0.00 | 0.00 | 65 | 1010.5 |
| 20260906012518 | 25 | 321 | 6.4 | 0.0 | 0.00 | 0.00 | 0.00 | 64 | 1010.3 |
| 20260906012019 | 25 | 313 | 6.4 | 0.0 | 0.00 | 0.00 | 0.00 | 63 | 1010.2 |
| 20260906011518 | 26 | 327 | 6.4 | 0.0 | 0.00 | 0.00 | 0.00 | 62 | 1010.1 |
| 20260906011017 | 26 | 320 | 8.0 | 0.0 | 0.00 | 0.00 | 0.00 | 62 | 1010.0 |
| 20260906010517 | 26 | 333 | 8.0 | 0.0 | 0.00 | 0.00 | 0.00 | 61 | 1009.9 |
| 20260906010017 | 26 | 322 | 9.7 | 0.0 | 0.00 | 0.00 | 0.00 | 61 | 1009.8 |
| 20260906005517 | 26 | 311 | 9.7 | 0.0 | 0.00 | 0.00 | 0.00 | 61 | 1009.8 |
| 20260906004516 | 27 | 336 | 11.3 | 0.0 | 0.00 | 0.00 | 0.00 | 60 | 1009.7 |
| 20260906004016 | 27 | 312 | 11.3 | 0.0 | 0.00 | 0.00 | 0.00 | 59 | 1009.7 |
| 20260906003516 | 27 | 335 | 11.3 | 0.0 | 0.00 | 0.00 | 0.00 | 59 | 1009.7 |
| 20260906003016 | 27 | 327 | 11.3 | 0.0 | 0.00 | 0.00 | 0.00 | 59 | 1009.7 |
| 20260906002515 | 27 | 11 | 11.3 | 0.0 | 0.00 | 0.00 | 0.00 | 58 | 1009.8 |
| 20260906002016 | 27 | 336 | 11.3 | 0.0 | 0.00 | 0.00 | 0.00 | 58 | 1009.7 |
| 20260906001516 | 27 | 360 | 12.9 | 0.0 | 0.00 | 0.00 | 0.00 | 59 | 1009.7 |
| 20260906001015 | 27 | 11 | 14.5 | 0.0 | 0.00 | 0.00 | 0.00 | 59 | 1009.7 |
| 20260906000518 | 27 | 360 | 14.5 | 0.0 | 0.00 | 0.00 | 0.00 | 59 | 1009.7 |
| 20260906000016 | 27 | 360 | 12.9 | 0.0 | 0.00 | 0.00 | 0.00 | 58 | 1009.7 |
| 20260905235516 | 27 | 355 | 12.9 | 0.0 | 0.00 | 0.00 | 0.00 | 58 | 1009.7 |
| 20260905234516 | 28 | 20 | 12.9 | 0.0 | 0.00 | 0.00 | 0.00 | 57 | 1009.6 |
| 20260905234019 | 28 | 5 | 12.9 | 0.0 | 0.00 | 0.00 | 0.00 | 57 | 1009.4 |
| 20260905233516 | 28 | 351 | 14.5 | 0.0 | 0.00 | 0.00 | 0.00 | 57 | 1009.3 |
| 20260905233016 | 28 | 355 | 16.1 | 0.0 | 0.00 | 0.00 | 0.00 | 57 | 1009.2 |
| 20260905232516 | 28 | 355 | 16.1 | 0.0 | 0.00 | 0.00 | 0.00 | 57 | 1009.2 |
| 20260905232016 | 28 | 24 | 14.5 | 0.0 | 0.00 | 0.00 | 0.00 | 56 | 1009.2 |
| 20260905231516 | 28 | 355 | 12.9 | 0.0 | 0.00 | 0.00 | 0.00 | 56 | 1009.3 |
| 20260905231015 | 28 | 336 | 14.5 | 0.0 | 0.00 | 0.00 | 0.00 | 56 | 1009.2 |
| 20260905230515 | 28 | 360 | 14.5 | 0.0 | 0.00 | 0.00 | 0.00 | 56 | 1009.1 |
| 20260905230016 | 28 | 355 | 14.5 | 0.0 | 0.00 | 0.00 | 0.00 | 56 | 1009.0 |
| 20260905225514 | 28 | 5 | 14.5 | 0.0 | 0.00 | 0.00 | 0.00 | 56 | 1008.8 |
| 20260905224519 | 28 | 360 | 14.5 | 0.0 | 0.00 | 0.00 | 0.00 | 56 | 1008.9 |
| 20260905224013 | 28 | 30 | 14.5 | 0.0 | 0.00 | 0.00 | 0.00 | 55 | 1009.1 |
| 20260905223513 | 29 | 26 | 12.9 | 0.0 | 0.00 | 0.00 | 0.00 | 55 | 1009.0 |
| 20260905223014 | 29 | 5 | 11.3 | 0.0 | 0.00 | 0.00 | 0.00 | 55 | 1009.0 |
| 20260905222517 | 29 | 302 | 11.3 | 0.0 | 0.00 | 0.00 | 0.00 | 55 | 1009.1 |
| 20260905222013 | 30 | 325 | 11.3 | 0.0 | 0.00 | 0.00 | 0.00 | 53 | 1009.1 |
| 20260905221529 | 29 | 339 | 11.3 | 0.0 | 0.00 | 0.00 | 0.00 | 55 | 1009.1 |
| 20260905221014 | 29 | 329 | 12.9 | 0.0 | 0.00 | 0.00 | 0.00 | 55 | 1009.2 |
| 20260905220513 | 29 | 355 | 14.5 | 0.0 | 0.00 | 0.00 | 0.00 | 55 | 1009.2 |
| 20260905220013 | 29 | 13 | 14.5 | 0.0 | 0.00 | 0.00 | 0.00 | 55 | 1009.2 |
| 20260905215513 | 29 | 348 | 12.9 | 0.0 | 0.00 | 0.00 | 0.00 | 55 | 1009.3 |